CW1950 Weather Reports


Display with metric or nautical units.
time (UTC)temp
F
wind
direction
speed
MPH
gust
MPH
rain 1hr
in
rain 24hr
in
rain mn
in
humidity
%
barometer
mb
20260901160503 64 0 0.0 0.0 0.00 0.00 0.00 85 1013.2
20260901160004 64 0 0.0 0.0 0.00 0.00 0.00 85 1013.1
20260901150503 62 0 0.0 0.0 0.00 0.00 0.00 85 1012.8
20260901150003 62 0 0.0 0.0 0.00 0.00 0.00 85 1012.8
20260901140503 62 0 0.0 0.0 0.00 0.00 0.00 84 1012.2
20260901140004 62 0 0.0 0.0 0.00 0.00 0.00 84 1012.1
20260901130504 62 0 0.0 0.0 0.00 0.00 0.00 84 1011.8
20260901130003 62 0 0.0 0.0 0.00 0.00 0.00 84 1011.7
20260901120503 62 0 0.0 0.0 0.00 0.00 0.00 84 1011.5
20260901120004 62 0 0.0 0.0 0.00 0.00 0.00 83 1011.4
20260901110503 62 0 0.0 0.0 0.00 0.00 0.00 83 1011.5
20260901110004 62 0 0.0 0.0 0.00 0.00 0.00 83 1011.5
20260901100504 62 0 0.0 0.0 0.00 0.00 0.00 83 1011.3
20260901100004 62 0 0.0 0.0 0.00 0.00 0.00 83 1011.4
20260901090504 63 0 0.0 0.0 0.00 0.00 0.00 84 1011.3
20260901090003 63 0 0.0 0.0 0.00 0.00 0.00 84 1011.3
20260901080504 63 0 0.0 0.0 0.00 0.00 0.00 84 1011.3
20260901080004 63 0 0.0 0.0 0.00 0.00 0.00 84 1011.3
20260901070504 63 0 0.0 0.0 0.00 0.00 0.00 85 1011.3
20260901070004 63 0 0.0 0.0 0.00 0.00 0.00 85 1011.3
20260901060003 63 0 0.0 0.0 0.00 0.00 0.00 85 1011.4
20260901050503 64 0 0.0 0.0 0.00 0.00 0.00 87 1011.3
20260901050003 64 0 0.0 0.0 0.00 0.00 0.00 87 1011.3
20260901040004 65 0 0.0 0.0 0.00 0.00 0.00 89 1010.8
20260901030504 67 0 0.0 0.0 0.00 0.00 0.00 87 1010.1
20260901020504 70 0 0.0 0.0 0.00 0.00 0.00 76 1009.7
20260901020004 70 0 0.0 0.0 0.00 0.00 0.00 76 1009.7
20260901010504 72 0 0.0 0.0 0.00 0.00 0.00 74 1009.6
20260901000503 75 0 0.0 0.0 0.00 0.00 0.00 70 1009.5
20260901000004 75 0 0.0 0.0 0.00 0.00 0.00 69 1009.5
20260831230503 76 0 0.0 0.0 0.00 0.00 0.00 67 1009.8
20260831230003 76 0 0.0 0.0 0.00 0.00 0.00 67 1009.8
20260831220504 76 0 0.0 0.0 0.00 0.00 0.00 71 1010.3
20260831220004 76 0 0.0 0.0 0.00 0.00 0.00 71 1010.5
20260831210504 74 0 0.0 0.0 0.00 0.00 0.00 75 1010.9
20260831200504 72 0 0.0 0.0 0.00 0.00 0.00 79 1011.3
20260831200004 72 0 0.0 0.0 0.00 0.00 0.00 79 1011.3
20260831190503 70 0 0.0 0.0 0.00 0.00 0.00 83 1011.9
20260831190004 69 0 0.0 0.0 0.00 0.00 0.00 83 1011.8
20260831180504 67 0 0.0 0.0 0.00 0.00 0.00 85 1012.0
20260831180004 67 0 0.0 0.0 0.00 0.00 0.00 85 1012.1
20260831170504 64 0 0.0 0.0 0.00 0.00 0.00 88 1012.0
20260831170004 64 0 0.0 0.0 0.00 0.00 0.00 88 1012.0